This is the latest recevied weather packets stored in our database for station/object KO5MO-4. If no packets are shown the sender has not sent any weather packets the latest 10 day(s).
| Time | Temp. | Humidity | Pressure | Rain* | Wind** | Luminosity | Snow |
|---|---|---|---|---|---|---|---|
| 1777345282 | 22.78° C | 21% | 1009 hPa | 0 mm | - | - | - |
| 1777341982 | 23.89° C | 20% | 1008.1 hPa | 0 mm | - | - | - |
| 1777341382 | 24.44° C | 19% | 1008.1 hPa | 0 mm | - | - | - |
| 1777340482 | 25° C | 19% | 1008.2 hPa | 0 mm | - | - | - |
| 1777340182 | 25.56° C | 19% | 1008.1 hPa | 0 mm | - | - | - |
| 1777339882 | 25.56° C | 19% | 1008 hPa | 0 mm | - | - | - |
| 1777339582 | 25.56° C | 20% | 1008 hPa | 0 mm | - | - | - |
| 1777338382 | 27.22° C | 18% | 1007.9 hPa | 0 mm | - | - | - |
| 1777338082 | 27.78° C | 18% | 1007.9 hPa | 0 mm | - | - | - |
| 1777337482 | 27.78° C | 18% | 1007.9 hPa | 0 mm | - | - | - |
| 1777333073 | 27.78° C | 16% | 1008.3 hPa | 0 mm | - | - | - |
| 1777326067 | 29.44° C | 17% | 1009 hPa | 0 mm | - | - | - |
| 1777325467 | 30.56° C | 16% | 1009.2 hPa | 0 mm | - | - | - |
| 1777325166 | 30.56° C | 16% | 1009.2 hPa | 0 mm | - | - | - |
| 1777324866 | 29.44° C | 16% | 1009.3 hPa | 0 mm | - | - | - |
| 1777323967 | 30° C | 16% | 1009.6 hPa | 0 mm | - | - | - |
| 1777323666 | 30.56° C | 16% | 1009.6 hPa | 0 mm | - | - | - |
| 1777322167 | 29.44° C | 16% | 1009.7 hPa | 0 mm | - | - | - |
| 1777321867 | 29.44° C | 16% | 1009.7 hPa | 0 mm | - | - | - |
| 1777321567 | 30° C | 16% | 1009.8 hPa | 0 mm | - | - | - |
| 1777321266 | 30° C | 16% | 1009.9 hPa | 0 mm | - | - | - |
| 1777320967 | 29.44° C | 16% | 1010 hPa | 0 mm | - | - | - |
| 1777320367 | 28.89° C | 16% | 1010 hPa | 0 mm | - | - | - |
| 1777318866 | 30° C | 16% | 1010.2 hPa | 0 mm | - | - | - |
| 1777318566 | 29.44° C | 17% | 1010.4 hPa | 0 mm | - | - | - |
* Rain latest hour (hover to see other rain measurements)
** Current wind speed in m/s (hover to see current wind gust speed)